FW0954 Weather Reports


time (UTC)temp
C
wind
direction
speed
KPH
gust
KPH
rain 1hr
cm
rain 24hr
cm
rain mn
cm
humidity
%
barometer
mb
20260507190003 22 106 1.6 4.8 0.00 0.00 0.00 59 1017.3
20260507185502 22 82 1.6 12.9 0.00 0.00 0.00 59 1017.3
20260507184502 22 88 0.0 6.4 0.00 0.00 0.00 57 1017.2
20260507184002 22 106 0.0 4.8 0.00 0.00 0.00 60 1017.3
20260507183503 22 99 0.0 4.8 0.00 0.00 0.00 61 1017.5
20260507183003 22 112 0.0 4.8 0.00 0.00 0.00 59 1017.5
20260507182502 22 96 1.6 4.8 0.00 0.00 0.00 63 1017.6
20260507182002 21 90 1.6 4.8 0.00 0.00 0.00 61 1017.7
20260507181502 21 100 0.0 4.8 0.00 0.00 0.00 60 1017.7
20260507180003 21 50 1.6 4.8 0.00 0.00 0.00 60 1017.9
20260507175502 21 67 1.6 4.8 0.00 0.00 0.00 60 1017.9
20260507175003 21 99 0.0 4.8 0.00 0.00 0.00 62 1017.9
20260507174502 21 126 0.0 4.8 0.00 0.00 0.00 63 1018.1
20260507174002 21 136 0.0 3.2 0.00 0.00 0.00 62 1018.3
20260507173502 21 130 0.0 3.2 0.00 0.00 0.00 62 1018.3
20260507173002 21 138 0.0 3.2 0.00 0.00 0.00 64 1018.4
20260507172502 21 169 0.0 3.2 0.00 0.00 0.00 64 1018.5
20260507172002 21 136 0.0 3.2 0.00 0.00 0.00 64 1018.7
20260507171502 20 110 0.0 3.2 0.00 0.00 0.00 64 1019.0
20260507171003 21 108 0.0 3.2 0.00 0.00 0.00 64 1019.3
20260507170003 21 115 0.0 3.2 0.00 0.00 0.00 65 1019.4
20260507165002 20 147 0.0 3.2 0.00 0.00 0.00 65 1019.5
20260507164002 20 129 0.0 6.4 0.00 0.00 0.00 67 1019.6
20260507163502 20 124 0.0 3.2 0.00 0.00 0.00 66 1019.7
20260507163003 20 124 0.0 3.2 0.00 0.00 0.00 66 1019.6
20260507162003 20 123 0.0 3.2 0.00 0.00 0.00 67 1019.8
20260507161502 20 135 0.0 3.2 0.00 0.00 0.00 68 1019.7
20260507161003 20 30 0.0 4.8 0.00 0.00 0.00 67 1019.6
20260507160502 19 105 0.0 4.8 0.00 0.00 0.00 68 1019.6
20260507160003 19 116 0.0 3.2 0.00 0.00 0.00 70 1019.6
20260507155502 19 113 0.0 3.2 0.00 0.00 0.00 69 1019.6
20260507155002 19 289 0.0 4.8 0.00 0.00 0.00 69 1019.6
20260507154503 19 124 0.0 4.8 0.00 0.00 0.00 68 1019.6
20260507154002 19 110 1.6 3.2 0.00 0.00 0.00 70 1019.7
20260507153003 19 119 0.0 6.4 0.00 0.00 0.00 70 1019.9
20260507152502 18 0 0.0 0.0 0.00 0.00 0.00 69 1019.9
20260507151502 18 162 0.0 1.6 0.00 0.00 0.00 71 1020.0
20260507151002 18 252 0.0 1.6 0.00 0.00 0.00 72 1020.0
20260507150503 18 93 0.0 4.8 0.00 0.00 0.00 73 1020.0
20260507150002 18 101 0.0 4.8 0.00 0.00 0.00 73 1020.0
20260507145502 18 110 0.0 4.8 0.00 0.00 0.00 74 1020.0
20260507144502 17 236 0.0 1.6 0.00 0.00 0.00 74 1020.0
20260507144003 17 236 0.0 1.6 0.00 0.00 0.00 75 1020.0
20260507143003 17 247 0.0 1.6 0.00 0.00 0.00 77 1020.1
20260507142502 16 253 0.0 3.2 0.00 0.00 0.00 79 1020.2
20260507142003 16 263 0.0 3.2 0.00 0.00 0.00 80 1020.1
20260507141502 16 267 0.0 1.6 0.00 0.00 0.00 79 1020.1
20260507141002 16 0 0.0 0.0 0.00 0.00 0.00 78 1020.2
20260507140003 16 273 0.0 1.6 0.00 0.00 0.00 80 1020.3
20260507135503 15 271 0.0 1.6 0.00 0.00 0.00 83 1020.4
20260507135002 15 270 0.0 4.8 0.00 0.00 0.00 84 1020.4
20260507134502 15 270 0.0 4.8 0.00 0.00 0.00 84 1020.6
20260507134003 14 267 0.0 3.2 0.00 0.00 0.00 86 1020.5
20260507133502 13 267 0.0 3.2 0.00 0.00 0.00 86 1020.5
20260507131503 13 275 0.0 1.6 0.00 0.00 0.00 89 1020.4
20260507131003 13 277 0.0 3.2 0.00 0.00 0.00 89 1020.5
20260507130502 12 276 0.0 3.2 0.00 0.00 0.00 90 1020.5
20260507130003 12 274 0.0 3.2 0.00 0.00 0.00 91 1020.5
20260507125503 12 274 0.0 3.2 0.00 0.00 0.00 92 1020.5
20260507125002 12 273 0.0 3.2 0.00 0.00 0.00 92 1020.4
20260507124503 12 262 0.0 3.2 0.00 0.00 0.00 93 1020.3
20260507124002 12 223 0.0 1.6 0.00 0.00 0.00 93 1020.1
20260507123502 11 0 0.0 0.0 0.00 0.00 0.00 93 1020.1
20260507123003 11 0 0.0 0.0 0.00 0.00 0.00 93 1020.1
20260507122503 11 0 0.0 0.0 0.00 0.00 0.00 93 1020.1
20260507115503 11 222 0.0 1.6 0.00 0.00 0.00 93 1019.7
20260507115003 11 222 0.0 1.6 0.00 0.00 0.00 93 1019.6
20260507114503 11 223 0.0 1.6 0.00 0.00 0.00 92 1019.8
20260507113503 11 0 0.0 0.0 0.00 0.00 0.00 92 1019.7
20260507113003 11 0 0.0 0.0 0.00 0.00 0.00 92 1019.5
20260507112502 11 0 0.0 0.0 0.00 0.00 0.00 92 1019.6
20260507112003 11 0 0.0 0.0 0.00 0.00 0.00 92 1019.6
20260507111503 12 0 0.0 0.0 0.00 0.00 0.00 92 1019.6
20260507111002 12 265 0.0 6.4 0.00 0.00 0.00 92 1019.7
20260507110503 12 252 0.0 6.4 0.00 0.00 0.00 92 1019.6
20260507110003 11 142 0.0 3.2 0.00 0.00 0.00 92 1019.4
20260507105502 11 123 0.0 1.6 0.00 0.00 0.00 92 1019.0
20260507105003 11 0 0.0 0.0 0.00 0.00 0.00 92 1018.7
20260507104503 11 0 0.0 0.0 0.00 0.00 0.00 91 1018.5
20260507104004 11 0 0.0 0.0 0.00 0.00 0.00 91 1018.5
20260507103503 11 0 0.0 0.0 0.00 0.00 0.00 91 1018.5
20260507102503 11 0 0.0 0.0 0.00 0.00 0.00 91 1018.1
20260507102002 11 0 0.0 0.0 0.00 0.00 0.00 90 1018.1
20260507101503 11 0 0.0 0.0 0.00 0.00 0.00 91 1018.1
20260507101003 11 0 0.0 0.0 0.00 0.00 0.00 90 1018.2
20260507100502 11 0 0.0 0.0 0.00 0.00 0.00 90 1018.3
20260507100003 11 0 0.0 0.0 0.00 0.00 0.00 90 1018.2
20260507095503 11 0 0.0 0.0 0.00 0.00 0.00 90 1018.0
20260507095002 11 0 0.0 0.0 0.00 0.00 0.00 90 1017.9
20260507094503 11 0 0.0 0.0 0.00 0.00 0.00 89 1018.1
20260507094004 12 125 0.0 3.2 0.00 0.00 0.00 89 1018.0
20260507093503 12 125 0.0 3.2 0.00 0.00 0.00 89 1018.0
20260507093003 12 0 0.0 0.0 0.00 0.00 0.00 89 1018.0
20260507092503 12 0 0.0 0.0 0.00 0.00 0.00 89 1017.9
20260507092003 12 128 0.0 1.6 0.00 0.00 0.00 89 1017.9
20260507091503 12 128 0.0 1.6 0.00 0.00 0.00 89 1017.8
20260507091003 12 128 0.0 1.6 0.00 0.00 0.00 89 1017.7
20260507090503 12 0 0.0 0.0 0.00 0.00 0.00 89 1017.7
20260507090005 12 0 0.0 0.0 0.00 0.00 0.00 89 1017.9
20260507085503 12 0 0.0 0.0 0.00 0.00 0.00 89 1017.9
20260507084503 12 128 0.0 1.6 0.00 0.00 0.00 88 1017.7
20260507084002 12 128 0.0 1.6 0.00 0.00 0.00 88 1017.7
20260507083503 12 128 0.0 1.6 0.00 0.00 0.00 88 1017.6
20260507083003 12 128 0.0 1.6 0.00 0.00 0.00 89 1017.7
20260507082503 12 121 0.0 3.2 0.00 0.00 0.00 88 1017.7
20260507082004 12 121 0.0 3.2 0.00 0.00 0.00 88 1017.6
20260507081503 13 51 0.0 1.6 0.00 0.00 0.00 88 1017.6
20260507081004 13 50 0.0 1.6 0.00 0.00 0.00 89 1017.5
20260507080503 13 51 0.0 1.6 0.00 0.00 0.00 88 1017.4
20260507080003 13 103 0.0 3.2 0.00 0.00 0.00 88 1017.3
20260507075503 13 140 0.0 4.8 0.00 0.00 0.00 88 1017.3
20260507075004 13 123 0.0 4.8 0.00 0.00 0.00 87 1017.2
20260507074503 13 103 0.0 4.8 0.00 0.00 0.00 88 1017.1
20260507074004 13 105 1.6 3.2 0.00 0.00 0.00 88 1017.0
20260507073503 13 108 0.0 3.2 0.00 0.00 0.00 88 1017.0
20260507073004 13 118 0.0 3.2 0.00 0.00 0.00 89 1017.0
20260507072503 13 119 0.0 1.6 0.00 0.00 0.00 89 1016.9
20260507072004 13 87 0.0 8.0 0.00 0.00 0.00 89 1017.1
20260507071504 13 90 1.6 8.0 0.00 0.00 0.00 89 1017.1
20260507071003 13 131 0.0 4.8 0.00 0.00 0.00 89 1017.1
20260507070504 13 122 1.6 8.0 0.00 0.00 0.00 89 1017.2
20260507065503 13 97 0.0 4.8 0.00 0.00 0.00 88 1017.0
20260507065003 13 87 0.0 4.8 0.00 0.00 0.00 88 1017.1
20260507063503 13 55 0.0 8.0 0.00 0.00 0.00 87 1017.0
20260507063003 13 88 0.0 8.0 0.00 0.00 0.00 87 1017.1
20260507062503 13 81 0.0 4.8 0.00 0.00 0.00 87 1017.1
20260507062004 13 84 1.6 6.4 0.00 0.00 0.00 87 1016.9
20260507061003 13 118 0.0 8.0 0.00 0.00 0.00 87 1016.9
20260507060504 13 111 0.0 4.8 0.00 0.00 0.00 86 1016.9
20260507060004 13 97 0.0 4.8 0.00 0.00 0.00 86 1016.8
20260507055503 14 126 0.0 1.6 0.00 0.00 0.00 85 1017.0
20260507055004 14 112 0.0 4.8 0.00 0.00 0.00 85 1017.0
20260507054504 14 111 1.6 4.8 0.00 0.00 0.00 85 1016.9
20260507054003 14 103 1.6 6.4 0.00 0.00 0.00 84 1016.8
20260507052503 14 89 0.0 6.4 0.00 0.00 0.00 83 1017.1
20260507052003 14 88 1.6 9.7 0.00 0.00 0.00 83 1017.1
20260507051504 14 98 1.6 9.7 0.00 0.00 0.00 83 1017.1
20260507051003 14 117 0.0 9.7 0.00 0.00 0.00 83 1017.0
20260507050503 15 99 1.6 9.7 0.00 0.00 0.00 83 1017.1
20260507050004 15 89 1.6 6.4 0.00 0.00 0.00 82 1017.1
20260507045504 15 85 1.6 8.0 0.00 0.00 0.00 82 1017.1
20260507045003 15 103 1.6 8.0 0.00 0.00 0.00 82 1017.2
20260507044501 15 104 1.6 8.0 0.00 0.00 0.00 82 1017.1
20260507044001 15 95 1.6 6.4 0.00 0.00 0.00 83 1017.2
20260507043501 15 90 1.6 6.4 0.00 0.00 0.00 82 1017.2
20260507043001 15 82 1.6 6.4 0.00 0.00 0.00 82 1017.3
20260507042502 15 76 1.6 6.4 0.00 0.00 0.00 83 1017.5
20260507042001 15 87 1.6 6.4 0.00 0.00 0.00 83 1017.4
20260507041501 15 71 1.6 6.4 0.00 0.00 0.00 83 1017.4
20260507041002 15 64 1.6 4.8 0.00 0.00 0.00 82 1017.4
20260507040501 15 90 0.0 4.8 0.00 0.00 0.00 83 1017.6
20260507040001 15 73 1.6 4.8 0.00 0.00 0.00 83 1017.6
20260507035501 15 78 1.6 6.4 0.00 0.00 0.00 83 1017.5
20260507035001 15 91 1.6 6.4 0.00 0.00 0.00 83 1017.5
20260507034501 15 84 1.6 6.4 0.00 0.00 0.00 83 1017.4
20260507034001 15 75 1.6 6.4 0.00 0.00 0.00 83 1017.4
20260507033001 15 40 1.6 4.8 0.00 0.00 0.00 83 1017.4
20260507032501 15 61 1.6 8.0 0.00 0.00 0.00 83 1017.2
20260507032001 15 104 1.6 9.7 0.00 0.00 0.00 84 1017.1
20260507031501 15 90 1.6 9.7 0.00 0.00 0.00 84 1017.1
20260507030501 15 103 0.0 3.2 0.00 0.00 0.00 84 1016.9
20260507030002 15 105 0.0 3.2 0.00 0.00 0.00 84 1016.7
20260507025002 15 89 0.0 3.2 0.00 0.00 0.00 84 1016.7
20260507024002 15 89 0.0 4.8 0.00 0.00 0.00 85 1016.6
20260507023501 15 40 0.0 4.8 0.00 0.00 0.00 85 1016.5
20260507022502 15 74 1.6 4.8 0.00 0.00 0.00 85 1016.3
20260507022001 15 69 0.0 6.4 0.00 0.00 0.00 86 1016.3
20260507020501 15 92 1.6 4.8 0.00 0.00 0.00 86 1015.9
20260507020002 15 96 1.6 4.8 0.00 0.00 0.00 86 1015.8
20260507015501 15 79 1.6 4.8 0.00 0.00 0.00 86 1015.7
20260507015001 15 80 1.6 4.8 0.00 0.00 0.00 86 1015.6
20260507014502 15 94 1.6 4.8 0.00 0.00 0.00 86 1015.5
20260507013502 15 119 0.0 1.6 0.00 0.00 0.00 86 1015.3
20260507013001 15 110 0.0 6.4 0.00 0.00 0.00 86 1015.2
20260507012502 15 113 0.0 6.4 0.00 0.00 0.00 86 1015.1
20260507012001 15 129 0.0 6.4 0.00 0.00 0.00 86 1015.0
20260507011502 15 87 0.0 4.8 0.00 0.00 0.00 86 1014.9
20260507011002 15 67 0.0 4.8 0.00 0.00 0.00 86 1014.7
20260507010502 15 65 0.0 3.2 0.00 0.00 0.00 86 1014.7
20260507010002 15 84 0.0 8.0 0.00 0.00 0.00 86 1014.8
20260507005502 15 77 1.6 8.0 0.00 0.00 0.00 86 1014.9
20260507005002 15 75 0.0 4.8 0.00 0.00 0.00 86 1014.7
20260507004501 15 98 0.0 3.2 0.00 0.00 0.00 86 1014.8
20260507003502 15 103 0.0 3.2 0.00 0.05 0.00 85 1014.8
20260507003002 15 96 0.0 3.2 0.00 0.05 0.00 85 1014.5
20260507002501 15 84 1.6 6.4 0.00 0.08 0.00 85 1014.4
20260507002002 15 88 0.0 6.4 0.00 0.10 0.00 85 1014.4
20260507001503 15 105 0.0 4.8 0.00 0.10 0.00 85 1014.4
20260507001002 15 110 0.0 4.8 0.00 0.10 0.00 85 1014.5
20260507000501 15 79 0.0 3.2 0.00 0.10 0.00 84 1014.3
20260507000002 15 40 0.0 3.2 0.00 0.10 0.00 85 1014.2
20260506235501 15 41 0.0 3.2 0.00 0.10 0.00 84 1014.1
20260506234002 15 79 0.0 3.2 0.00 0.10 0.00 84 1014.3
20260506233501 15 78 0.0 3.2 0.00 0.10 0.00 83 1014.3
20260506231501 15 105 0.0 3.2 0.00 0.10 0.00 83 1014.0
20260506230502 15 97 1.6 9.7 0.00 0.10 0.00 83 1014.0
20260506230002 15 92 1.6 9.7 0.00 0.10 0.00 83 1013.7
20260506225502 15 66 0.0 3.2 0.00 0.10 0.00 83 1013.8
20260506225001 15 83 1.6 3.2 0.00 0.10 0.00 83 1013.9
20260506224502 15 97 1.6 3.2 0.00 0.10 0.00 82 1013.9
20260506224001 16 92 0.0 3.2 0.00 0.10 0.00 83 1013.7
20260506223502 16 74 0.0 3.2 0.00 0.10 0.00 83 1013.8
20260506222502 16 80 0.0 3.2 0.00 0.10 0.00 82 1013.7
20260506222002 16 84 0.0 3.2 0.00 0.10 0.00 82 1013.7
20260506221502 16 69 0.0 3.2 0.00 0.10 0.00 82 1013.5
20260506221002 16 41 1.6 4.8 0.00 0.10 0.00 82 1013.4
20260506220502 16 33 1.6 4.8 0.00 0.10 0.00 81 1013.4
20260506220002 16 56 1.6 3.2 0.00 0.10 0.00 81 1013.1
20260506215502 16 41 1.6 4.8 0.00 0.10 0.00 81 1013.3
20260506215001 16 7 1.6 4.8 0.00 0.10 0.00 81 1013.2
20260506214502 16 334 0.0 3.2 0.00 0.10 0.00 80 1013.3
20260506214001 16 295 0.0 1.6 0.00 0.10 0.00 81 1013.4
20260506213502 16 59 0.0 3.2 0.00 0.10 0.00 80 1013.4
20260506213001 16 89 0.0 3.2 0.00 0.10 0.00 80 1013.4
20260506212502 16 97 0.0 3.2 0.00 0.10 0.00 80 1013.4
20260506211502 16 119 0.0 3.2 0.00 0.10 0.00 80 1013.5
20260506211002 16 113 0.0 3.2 0.00 0.10 0.00 79 1013.5
20260506210002 16 322 0.0 3.2 0.00 0.10 0.00 80 1013.5
20260506205002 16 79 1.6 3.2 0.00 0.10 0.00 79 1013.9
20260506204503 16 80 1.6 6.4 0.00 0.10 0.00 79 1013.7
20260506204002 16 96 0.0 6.4 0.00 0.10 0.00 79 1013.8
20260506203502 16 347 1.6 4.8 0.00 0.10 0.00 80 1013.8
20260506203002 16 283 1.6 4.8 0.00 0.10 0.00 79 1013.8
20260506200503 16 230 0.0 3.2 0.00 0.10 0.00 81 1014.4
20260506200003 16 278 0.0 3.2 0.00 0.10 0.00 80 1014.5
20260506195002 16 320 1.6 6.4 0.00 0.10 0.00 80 1014.4
20260506194502 16 8 1.6 6.4 0.00 0.10 0.00 81 1014.1
20260506194002 15 45 1.6 3.2 0.00 0.10 0.00 82 1013.7
20260506193502 15 110 0.0 3.2 0.00 0.10 0.00 84 1013.7
20260506193003 15 124 0.0 3.2 0.00 0.10 0.00 84 1013.9
20260506192502 14 140 0.0 3.2 0.00 0.10 0.00 84 1014.2
20260506192002 14 61 1.6 6.4 0.00 0.10 0.00 83 1014.7
20260506191502 14 352 1.6 6.4 0.00 0.10 0.00 83 1014.9
20260506191002 15 265 0.0 3.2 0.00 0.10 0.00 83 1014.8
20260506190502 15 264 0.0 3.2 0.00 0.10 0.00 83 1014.4